Погода в Марьяновке

Россия / Приморский край     44°47′37″N   133°43′57″E
темп.,
°C
ветер,
м/с
пор.,
м/с
влажн.,
%
обл.,
%
осадки,
мм/ч
давл.,
гПа
погр.,
м
4 июля, пн
пн401:00+19ююз119663 0.0 100514
04:00+18ююз119780 0.0 100520
07:00+19ююз12977 0.0 100585
10:00+25зюз137024 0.0 1005735
13:00+29зсз34505 0.0 10041620
16:00+30ссз33472 0.0 10041803
19:00+27ссз23691 0.0 1004172
22:00+21св11906 0.1 100511
5 июля, вт
вт501:00+20юв11954 0.6 100616
04:00+18юв119795 1.2 100624
07:00+19юв12977 0.1 100894
10:00+25юв22695 0.1 1007617
13:00+30ююз125179 0.0 10061567
16:00+27з2274100 0.4 1005123
19:00+26ссв1192100 1.6 100635
22:00+21в0194100 2.6 100811
6 июля, ср
ср601:00+20юв1197100 0.1 100915
04:00+19юв2198100 0.3 101029
07:00+19юв1297100 0.0 101084
10:00+24юв1271100 0.0 1010462
13:00+29ююв125599 0.0 10091146
16:00+32ююв134688 0.0 10082075
19:00+28ссз127223 0.0 100785
22:00+21ссз11979 0.3 100914
7 июля, чт
чт701:00+20юв11985 0.0 101015
04:00+18юв219723 0.0 101031
07:00+19юв1294100 0.0 1010104
10:00+25ююв235994 0.0 1009616
13:00+30ю2543100 0.0 10081690
16:00+31юз3543100 0.0 10062043
19:00+25зюз1281100 0.3 100650
22:00+22ююв2282100 0.3 100625
8 июля, пт
пт801:00+20юв2297100 1.0 100741
04:00+19ююв2398100 1.6 100685
07:00+18юв2399100 5.7 1007157
10:00+19юв2497100 13.0 1006242
13:00+19юв2499100 1.9 1006252
16:00+20юв2398100 3.4 1006173
19:00+22вюв2486100 0.0 1005328
22:00+19вюв2294100 0.0 100662